Погода в Перебродах

Украина / Ровненская область     51°43′28″N   26°58′39″E
темп.,
°C
ветер,
м/с
пор.,
м/с
влажн.,
%
обл.,
%
осадки,
мм/ч
давл.,
гПа
погр.,
м
27 ноября, сб
сб2723:00+4юв51483100 0.0 998789
02:00+6юв51484100 1.3 9941165
05:00+6ююв51192100 0.9 991917
08:00+6ююз3790100 1.1 991408
11:00+7юз6117978 0.1 9931033
14:00+4юз6117798 0.1 995930
17:00+4зюз51177100 0.0 9981073
20:00+3зюз497299 0.0 1000917
28 ноября, вс
вс2823:00+1юз25865 0.0 1002136
02:000ю239147 0.0 100263
05:00+1ю1387100 0.0 1003136
08:00+3юв2386100 0.0 100298
11:00+3вюв2493100 1.3 1003141
14:00+5в2585100 2.3 1001222
17:00+5вюв3890100 2.0 999247
20:00+5юв2892100 2.0 998240
29 ноября, пн
пн2923:00+4ююв3792100 0.0 997140
02:00+4юв2592100 0.0 995108
05:00+4вюв3893100 0.0 992173
08:00+5юв31097100 0.0 990346
11:00+7ю2997100 0.2 988506
14:00+4з61193100 1.2 988614
17:00+2з61178100 0.0 9901011
20:00+2зюз71381100 0.1 9911270
30 ноября, вт
вт3023:00+1зюз81695100 0.2 9911293
02:00+1зюз81688100 0.4 9921484
05:00+1зюз91893100 0.4 9931455
08:00+1з71696100 1.0 9951362
11:00+2з81473100 0.3 9991414
14:00+1з71272100 0.3 10001159
17:00−1з61274100 0.0 1001861
20:00−1зюз4119399 0.1 1002786
1 декабря, ср
ср123:00−1зюз41088100 0.2 1001741
02:00−1юз3884100 0.2 1000764
05:00−1ююз3996100 0.9 999494
08:00−1юз269578 1.3 1000388
11:00+1з248548 0.0 1001387
14:00+1з3576100 0.0 1002830
17:000ююз2699100 0.1 1003368
20:00+1юз4996100 0.3 1002620